Skip Page Navigation
NASA JPL Caltech
NASA Logo - Jet Propulsion Laboratory + View the NASA Portal
+ Center for Near-Earth Object Studies
JPL Home Earth Solar System Stars & Galaxies Technology
JPL Solar System Dynamics
BODIES ORBITS EPHEMERIDES TOOLS PHYSICAL DATA DISCOVERY FAQ SITE MAP
IMPORTANT: The SSD Announcement email list is now available. Major changes are coming in the near future, including possible hostname and/or URL changes. To be notified of such changes, subscribe to this email list.

Please visit this page for more details.


JPL Small-Body Database Browser
Search: [ help ]  
59324 (1999 CF97)
Classification: Main-belt Asteroid          SPK-ID: 2059324
Ephemeris | Orbit Diagram | Orbital Elements | Mission Design | Physical Parameters | Discovery Circumstances ]

[ show orbit diagram ]
Orbital Elements at Epoch 2459000.5 (2020-May-31.0) TDB
Reference: JPL 17 (heliocentric ecliptic J2000)
 Element Value Uncertainty (1-sigma)   Units 
e .1101684279880148 4.5055e-08  
a 2.357708997825029 1.1088e-08 au
q 2.097963903881448 1.0956e-07 au
i 3.318136511781541 4.546e-06 deg
node 109.7200054293141 9.159e-05 deg
peri 41.79992742111509 9.4598e-05 deg
M 315.4635507524326 2.3897e-05 deg
tp 2459164.086257425390
(2020-Nov-10.58625743)
8.8139e-05 TDB
period 1322.311357732613
3.62
9.3281e-06
2.554e-08
d
yr
n .2722505542244585 1.9206e-09 deg/d
Q 2.61745409176861 1.231e-08 au
  Orbit Determination Parameters
   # obs. used (total)      548  
   data-arc span      10163 days (27.82 yr)  
   first obs. used      1992-03-30  
   last obs. used      2020-01-26  
   planetary ephem.      DE431  
   SB-pert. ephem.      SB431-N16  
   condition code      0  
   norm. resid. RMS      .57752  
   source      ORB  
   producer      Otto Matic  
   solution date      2020-Feb-23 12:46:22  

Additional Information
 Earth MOID = 1.11017 au 
 Jupiter MOID = 2.37324 au 
 T_jup = 3.543 
[ show covariance matrix ]

Ephemeris | Orbit Diagram | Orbital Elements | Mission Design | Physical Parameters | Discovery Circumstances ]

Physical Parameter Table
Parameter Symbol Value Units Sigma Reference Notes
absolute magnitude H 16.4   n/a MPO417234  
diameter diameter 3.070 km 0.098 urn:nasa:pds:neowise_diameters_albedos::2.0[mainbelt] (http://adsabs.harvard.edu/abs/2011ApJ...741...68M)  
geometric albedo albedo 0.033   0.007 urn:nasa:pds:neowise_diameters_albedos::2.0[mainbelt] (http://adsabs.harvard.edu/abs/2011ApJ...741...68M)  

59324 (1999 CF97)          Discovered 1999-Feb-10 by LINEAR at Socorro
Reference: 20030614/Numbers.arcLast Updated: 2004-04-19

Alternate Designations
 1999 CF97 = 2001 UP71 
Ephemeris | Orbit Diagram | Orbital Elements | Mission Design | Physical Parameters | Discovery Circumstances ]
ABOUT SSD CREDITS/AWARDS PRIVACY/COPYRIGHT GLOSSARY LINKS
FirstGov 2020-Mar-29 10:23 UT
(server date/time)  
NASA Home Page
Site Manager:   Ryan S. Park
Webmaster  Alan B. Chamberlin